Regional Weather Roundup
Issued by NWS Northern Indiana

Home | Current Version | Previous Version | Graphics & Text | Print | Product List | Glossary On
Versions: 1 2 3 4 5 6 7 8 9 10 11 12 13 14 15 16 17 18 19 20 21 22 23 24 25 26 27 28 29 30 31 32 33 34 35 36 37 38 39 40 41 42 43 44 45 46 47 48 49 50
000
ASUS43 KIWX 280710
RWRIWX

KIWX WEATHER ROUNDUP
NATIONAL WEATHER SERVICE NORTHERN INDIANA
200 AM EST WED JAN 28 2015

NOTE: "FAIR" INDICATES FEW OR NO CLOUDS BELOW 12,000 FEET WITH NO
SIGNIFICANT WEATHER AND/OR OBSTRUCTIONS TO VISIBILITY.

* THESE STATIONS ARE NOT UNDER NWS QUALITY CONTROL. THEY ALSO MAY NOT
  REPORT WEATHER SUCH AS PRECIPITATION OR FOG.

INZ001>027-280800-
NORTHERN INDIANA

CITY           SKY/WX    TMP DP  RH WIND       PRES   REMARKS
GARY*          MOCLDY    24  17  74 CALM      30.28R
VALPARAISO     PTCLDY    16  11  80 CALM      30.26F
MICHIGAN CITY* PTCLDY    18  12  79 CALM      30.27S
LAPORTE*       PTCLDY    17  13  86 CALM      30.26F
KNOX*          PTCLDY    15   8  71 CALM      30.26S
SOUTH BEND     PTCLDY    15   9  76 CALM      30.27R
GOSHEN         PTCLDY    13   7  77 CALM      30.25F
MONTICELLO*    PTCLDY    17  15  90 CALM      30.26F
LOGANSPORT*    PTCLDY    14  10  85 CALM      30.28S
ROCHESTER*     PTCLDY    18  16  93 CALM      30.27R
WARSAW*        PTCLDY    12   9  85 CALM      30.25F
ANGOLA*        CLEAR      7   5  92 CALM      30.23R
FORT WAYNE     PTCLDY     9   6  88 CALM      30.26S
HUNTINGTON*    PTCLDY     9   4  80 CALM      30.26S
PERU/GRISSOM   FAIR       9   6  86 CALM      30.26R
MARION*        PTCLDY    13  11  90 CALM      30.27S

$$
INZ028>050-280800-
CENTRAL INDIANA

CITY           SKY/WX    TMP DP  RH WIND       PRES   REMARKS
LAFAYETTE      PTCLDY    16  13  88 CALM      30.27S
KOKOMO*        PTCLDY    10   7  85 CALM      30.26F
MUNCIE*        PTCLDY     9   7  92 CALM      30.26R FOG
INDIANAPOLIS   CLEAR     17  12  80 CALM      30.27R

$$
MIZ043>046-050>051-056>058-064>065-071>073-077>080-280800-
SOUTHWEST LOWER MICHIGAN

CITY           SKY/WX    TMP DP  RH WIND       PRES   REMARKS
BATTLE CREEK   PTCLDY    12   6  77 CALM      30.23S
BENTON HARBOR  PTCLDY    15  12  88 SE3       30.26R
COLDWATER*     PTCLDY     9   6  90 CALM      30.24R
HILLSDALE*     PTCLDY     8   5  89 CALM      30.20F
HOLLAND        PTCLDY    16  10  77 CALM      30.25S
GRAND RAPIDS   PTCLDY    12   7  80 S3        30.23S
KALAMAZOO      CLEAR     11   7  84 CALM      30.24S
STURGIS*       PTCLDY    10   7  85 CALM      30.24R
THREE RIVERS*  FAIR      12   9  87 CALM      30.26R

$$
OHZ001>008-015>018-024>025-280800-
NORTHWEST OHIO

CITY           SKY/WX    TMP DP  RH WIND       PRES   REMARKS
WAUSEON*       FAIR      12   9  85 CALM      30.25S
DEFIANCE       MOCLDY     7   3  84 CALM      30.26S
FINDLAY        MOCLDY     6   2  83 CALM      30.24R FOG
TOLEDO EXPRESS PTCLDY    11   6  81 CALM      30.25R
TOLEDO METCALF PTCLDY    14   8  77 NW3       30.26R
LIMA           PTCLDY    10   5  80 CALM      30.23R HAZE

$$
AND FOR LAKE MICHIGAN COASTAL AND OPEN LAKE BUOY OBSERVATIONS

STATION/POSITION TEMP    WIND        PRES    VSBY  WAVE
                 AIR SEA DIR/SP/G                  HT/PER
                 (F)     (DEG/KT/KT) (MB)    (MI)  (FT/S)
CALUMET HARBOR    27     260/  1/  2   N/A
MICHIGAN CITY     21     120/  4/  5   N/A
SAINT JOSEPH      22     120/  2/  4 1025.4R

$$
&&


USA.gov is the U.S. government's official web portal to all federal, state and local government web resources and services.